• în Republica Moldova
  • Lista ţărilor
  • Pe 7 zile
  • Temperatura apei
  • Hartă satelitară
  • Meteo pe hartă
  • Widget-uri
  • user-avatar
    Intrare

    Meteo pe oră la Malanje

    Astăzi, 25 Iulie, Marţi

    Timp Temperatura Precipitaţii Vânt Presiune Umiditate
    00:00 +21°C° 0 mm 2 m/s 667 mmHg 54%
    01:00 +20°C° 0 mm 2 m/s 667 mmHg 63%
    02:00 +19°C° 0 mm 2 m/s 667 mmHg 66%
    03:00 +18°C° 0 mm 2 m/s 667 mmHg 70%
    04:00 +18°C° 0 mm 2 m/s 667 mmHg 73%
    05:00 +18°C° 0 mm 2 m/s 667 mmHg 74%
    06:00 +17°C° 0 mm 2 m/s 667 mmHg 76%
    07:00 +19°C° 0 mm 1 m/s 667 mmHg 77%
    08:00 +22°C° 0 mm 1 m/s 668 mmHg 63%
    09:00 +25°C° 0 mm 2 m/s 669 mmHg 50%
    10:00 +28°C° 0 mm 2 m/s 669 mmHg 36%
    11:00 +31°C° 0 mm 2 m/s 669 mmHg 29%
    12:00 +33°C° 0 mm 1 m/s 669 mmHg 23%
    13:00 +35°C° 0 mm 2 m/s 669 mmHg 16%
    14:00 +35°C° 0 mm 2 m/s 668 mmHg 15%
    15:00 +34°C° 0 mm 1 m/s 668 mmHg 14%
    16:00 +34°C° 0 mm 1 m/s 667 mmHg 13%
    17:00 +31°C° 0 mm 1 m/s 667 mmHg 15%
    18:00 +29°C° 0 mm 1 m/s 666 mmHg 18%
    19:00 +27°C° 0 mm 1 m/s 666 mmHg 20%
    20:00 +25°C° 0 mm 1 m/s 666 mmHg 25%
    21:00 +24°C° 0 mm 1 m/s 667 mmHg 31%
    22:00 +23°C° 0 mm 1 m/s 667 mmHg 36%
    23:00 +22°C° 0 mm 1 m/s 667 mmHg 45%

    Mâine, 26 Iulie, Miercuri

    Timp Temperatura Precipitaţii Vânt Presiune Umiditate
    00:00 +21°C° 0 mm 1 m/s 666 mmHg 53%
    01:00 +20°C° 0 mm 2 m/s 666 mmHg 62%
    02:00 +20°C° 0 mm 1 m/s 666 mmHg 67%
    03:00 +19°C° 0 mm 1 m/s 665 mmHg 72%
    04:00 +18°C° 0 mm 1 m/s 665 mmHg 77%
    05:00 +18°C° 0 mm 1 m/s 665 mmHg 75%
    06:00 +18°C° 0 mm 1 m/s 666 mmHg 74%
    07:00 +19°C° 0 mm 1 m/s 666 mmHg 73%
    08:00 +22°C° 0 mm 1 m/s 667 mmHg 56%
    09:00 +26°C° 0 mm 2 m/s 668 mmHg 39%
    10:00 +29°C° 0 mm 2 m/s 669 mmHg 22%
    11:00 +31°C° 0 mm 2 m/s 669 mmHg 18%
    12:00 +34°C° 0 mm 2 m/s 668 mmHg 15%
    13:00 +36°C° 0 mm 2 m/s 668 mmHg 11%
    14:00 +35°C° 0 mm 2 m/s 667 mmHg 11%
    15:00 +35°C° 0 mm 2 m/s 667 mmHg 11%
    16:00 +35°C° 0 mm 2 m/s 666 mmHg 10%
    17:00 +32°C° 0 mm 1 m/s 666 mmHg 12%
    18:00 +29°C° 0 mm 1 m/s 666 mmHg 14%
    19:00 +27°C° 0 mm 1 m/s 665 mmHg 16%
    20:00 +26°C° 0 mm 1 m/s 666 mmHg 20%
    21:00 +25°C° 0 mm 1 m/s 666 mmHg 23%
    22:00 +24°C° 0 mm 1 m/s 666 mmHg 27%
    23:00 +23°C° 0 mm 1 m/s 666 mmHg 35%

    Poimâine, 27 Iulie, Joi

    Timp Temperatura Precipitaţii Vânt Presiune Umiditate
    00:00 +22°C° 0 mm 1 m/s 666 mmHg 44%
    01:00 +20°C° 0 mm 2 m/s 666 mmHg 52%
    02:00 +20°C° 0 mm 1 m/s 665 mmHg 58%
    03:00 +19°C° 0 mm 1 m/s 665 mmHg 63%
    04:00 +19°C° 0 mm 1 m/s 665 mmHg 69%
    05:00 +19°C° 0 mm 1 m/s 665 mmHg 68%
    06:00 +19°C° 0 mm 1 m/s 666 mmHg 67%
    07:00 +19°C° 0 mm 1 m/s 666 mmHg 66%
    08:00 +23°C° 0 mm 1 m/s 667 mmHg 51%
    09:00 +27°C° 0 mm 1 m/s 668 mmHg 36%
    10:00 +31°C° 0 mm 1 m/s 669 mmHg 21%
    11:00 +32°C° 0 mm 1 m/s 669 mmHg 19%
    12:00 +34°C° 0 mm 1 m/s 669 mmHg 17%
    13:00 +36°C° 0 mm 1 m/s 668 mmHg 15%
    14:00 +36°C° 0 mm 1 m/s 667 mmHg 16%
    15:00 +35°C° 0 mm 1 m/s 667 mmHg 16%
    16:00 +35°C° 0 mm 1 m/s 666 mmHg 16%
    17:00 +33°C° 0 mm 1 m/s 666 mmHg 18%
    18:00 +31°C° 0 mm 1 m/s 666 mmHg 20%
    19:00 +29°C° 0 mm 1 m/s 666 mmHg 22%
    20:00 +28°C° 0 mm 1 m/s 667 mmHg 24%
    21:00 +27°C° 0 mm 1 m/s 667 mmHg 26%
    22:00 +26°C° 0 mm 1 m/s 667 mmHg 29%
    23:00 +25°C° 0 mm 1 m/s 667 mmHg 33%

    28 Iulie, Vineri

    Timp Temperatura Precipitaţii Vânt Presiune Umiditate
    00:00 +24°C° 0 mm 1 m/s 666 mmHg 37%
    01:00 +23°C° 0 mm 2 m/s 666 mmHg 42%
    02:00 +22°C° 0 mm 1 m/s 665 mmHg 46%
    03:00 +21°C° 0 mm 1 m/s 665 mmHg 50%
    04:00 +20°C° 0 mm 1 m/s 665 mmHg 55%
    05:00 +20°C° 0 mm 1 m/s 665 mmHg 53%
    06:00 +21°C° 0 mm 1 m/s 666 mmHg 51%
    07:00 +21°C° 0 mm 1 m/s 666 mmHg 49%
    08:00 +24°C° 0 mm 1 m/s 667 mmHg 37%
    09:00 +27°C° 0 mm 2 m/s 668 mmHg 26%
    10:00 +31°C° 0 mm 2 m/s 669 mmHg 15%
    11:00 +32°C° 0 mm 2 m/s 668 mmHg 14%
    12:00 +35°C° 0 mm 3 m/s 668 mmHg 12%
    13:00 +37°C° 0 mm 3 m/s 667 mmHg 11%
    14:00 +36°C° 0 mm 2 m/s 667 mmHg 11%
    15:00 +36°C° 0 mm 2 m/s 666 mmHg 11%
    16:00 +36°C° 0 mm 2 m/s 666 mmHg 11%
    17:00 +34°C° 0 mm 2 m/s 666 mmHg 12%
    18:00 +31°C° 0 mm 1 m/s 666 mmHg 14%
    19:00 +28°C° 0 mm 1 m/s 666 mmHg 16%
    20:00 +27°C° 0 mm 1 m/s 666 mmHg 20%
    21:00 +26°C° 0 mm 1 m/s 666 mmHg 24%
    22:00 +25°C° 0 mm 1 m/s 667 mmHg 28%
    23:00 +24°C° 0 mm 1 m/s 666 mmHg 37%

    29 Iulie, Sâmbătă

    Timp Temperatura Precipitaţii Vânt Presiune Umiditate
    00:00 +23°C° 0 mm 1 m/s 666 mmHg 45%
    01:00 +20°C° 0 mm 2 m/s 665 mmHg 54%
    02:00 +20°C° 0 mm 2 m/s 665 mmHg 57%
    03:00 +20°C° 0 mm 1 m/s 665 mmHg 59%
    04:00 +20°C° 0 mm 1 m/s 665 mmHg 62%
    05:00 +20°C° 0 mm 1 m/s 666 mmHg 58%
    06:00 +20°C° 0 mm 1 m/s 666 mmHg 55%
    07:00 +20°C° 0 mm 1 m/s 667 mmHg 51%
    08:00 +23°C° 0 mm 2 m/s 667 mmHg 39%
    09:00 +26°C° 0 mm 2 m/s 668 mmHg 27%
    10:00 +30°C° 0 mm 3 m/s 669 mmHg 15%
    11:00 +31°C° 0 mm 3 m/s 668 mmHg 14%
    12:00 +34°C° 0 mm 3 m/s 668 mmHg 13%
    13:00 +35°C° 0 mm 3 m/s 667 mmHg 11%
    14:00 +35°C° 0 mm 2 m/s 667 mmHg 11%
    15:00 +35°C° 0 mm 2 m/s 666 mmHg 11%
    16:00 +35°C° 0 mm 2 m/s 666 mmHg 11%
    17:00 +32°C° 0 mm 1 m/s 666 mmHg 13%
    18:00 +30°C° 0 mm 1 m/s 666 mmHg 15%
    19:00 +28°C° 0 mm 1 m/s 666 mmHg 17%
    20:00 +27°C° 0 mm 1 m/s 666 mmHg 20%
    21:00 +26°C° 0 mm 1 m/s 667 mmHg 23%
    22:00 +25°C° 0 mm 1 m/s 667 mmHg 27%
    23:00 +23°C° 0 mm 1 m/s 667 mmHg 37%

    30 Iulie, Duminică

    Timp Temperatura Precipitaţii Vânt Presiune Umiditate
    00:00 +21°C° 0 mm 2 m/s 666 mmHg 47%
    01:00 +20°C° 0 mm 2 m/s 666 mmHg 57%
    02:00 +20°C° 0 mm 1 m/s 666 mmHg 60%
    03:00 +20°C° 0 mm 1 m/s 666 mmHg 63%
    04:00 +19°C° 0 mm 1 m/s 665 mmHg 66%
    05:00 +19°C° 0 mm 1 m/s 666 mmHg 62%
    06:00 +19°C° 0 mm 1 m/s 666 mmHg 58%
    07:00 +19°C° 0 mm 1 m/s 667 mmHg 54%
    08:00 +23°C° 0 mm 1 m/s 668 mmHg 41%
    09:00 +26°C° 0 mm 2 m/s 668 mmHg 29%
    10:00 +29°C° 0 mm 3 m/s 669 mmHg 17%
    11:00 +31°C° 0 mm 3 m/s 668 mmHg 15%
    12:00 +34°C° 0 mm 2 m/s 668 mmHg 13%
    13:00 +36°C° 0 mm 2 m/s 667 mmHg 12%
    14:00 +36°C° 0 mm 2 m/s 667 mmHg 11%
    15:00 +36°C° 0 mm 2 m/s 666 mmHg 11%
    16:00 +36°C° 0 mm 2 m/s 666 mmHg 11%
    17:00 +32°C° 0 mm 1 m/s 666 mmHg 13%
    18:00 +30°C° 0 mm 1 m/s 665 mmHg 15%
    19:00 +28°C° 0 mm 1 m/s 665 mmHg 17%
    20:00 +27°C° 0 mm 1 m/s 666 mmHg 18%
    21:00 +26°C° 0 mm 1 m/s 666 mmHg 20%
    22:00 +25°C° 0 mm 1 m/s 666 mmHg 22%
    23:00 +24°C° 0 mm 1 m/s 666 mmHg 32%
    Arată mai mult